This demonstration page uses our WeatherBlox Daily Observations layout. Learn more.

Left ArrowRight Arrow

36.19886, -115.1175

Hourly Observations for August 4, 2015

Temp ( °F °C ) Dew Point ( °F °C ) Humidity (%) Winds ( mph kmh ) Pressure ( in mb ) Visibility ( mi km ) Precip ( " mm )
12:53 am 00:53 Clear 89 31.7 24 -4.4 9 9 SW 8 13 29.77 1008 10 16 0.00 0.00
1:53 am 01:53 Clear 88 31.1 31 -0.6 13 13 NW 7 11 29.77 1008 10 16 0.00 0.00
2:53 am 02:53 Clear 83 28.3 32 0 16 16 WNW 5 7 29.79 1009 10 16 0.00 0.00
3:53 am 03:53 Clear 79 26.1 33 0.6 19 19 NW 5 7 29.80 1009 10 16 0.00 0.00
4:53 am 04:53 Clear 78 25.6 33 0.6 19 19 NW 3 6 29.81 1010 10 16 0.00 0.00
5:53 am 05:53 Sunny 77 25 33 0.6 20 20 Calm 29.83 1010 10 16 0.00 0.00
6:53 am 06:53 Sunny 80 26.7 35 1.7 20 20 NW 5 7 29.85 1011 10 16 0.00 0.00
7:53 am 07:53 Sunny 84 28.9 39 3.9 20 20 N 3 6 29.87 1011 10 16 0.00 0.00
8:53 am 08:53 Sunny 88 31.1 38 3.3 17 17 Calm 29.87 1012 10 16 0.00 0.00
9:53 am 09:53 Sunny 91 32.8 40 4.4 17 17 Calm 29.87 1012 10 16 0.00 0.00
10:53 am 10:53 Sunny 97 36.1 37 2.8 12 12 SE 13 20 29.87 1011 10 16 0.00 0.00
11:53 am 11:53 Sunny 99 37.2 34 1.1 10 10 SE 14 22 29.85 1011 10 16 0.00 0.00
12:53 pm 12:53 Sunny 104 40 27 -2.8 7 7 SSW 12 19 29.83 1010 10 16 0.00 0.00
1:53 pm 13:53 Sunny 104 40 28 -2.2 7 7 S 15 24 29.82 1010 10 16 0.00 0.00
2:53 pm 14:53 Sunny 103 39.4 30 -1.1 8 8 SSW 10 17 29.80 1009 10 16 0.00 0.00
3:53 pm 15:53 Sunny 104 40 30 -1.1 7 7 SW 15 24 29.78 1008 10 16 0.00 0.00
4:53 pm 16:53 Sunny 105 40.6 32 0 8 8 SW 16 26 29.77 1008 10 16 0.00 0.00
5:53 pm 17:53 Sunny 102 38.9 32 0 9 9 SSW 12 19 29.76 1008 10 16 0.00 0.00
6:53 pm 18:53 Sunny 102 38.9 34 1.1 9 9 WSW 15 24 29.76 1008 10 16 0.00 0.00
7:53 pm 19:53 Clear 99 37.2 34 1.1 10 10 SSW 7 11 29.77 1008 10 16 0.00 0.00
8:53 pm 20:53 Clear 97 36.1 35 1.7 11 11 SW 6 9 29.78 1009 10 16 0.00 0.00
9:53 pm 21:53 Clear 96 35.6 35 1.7 12 12 SW 13 20 29.79 1009 10 16 0.00 0.00
10:53 pm 22:53 Clear 95 35 37 2.8 13 13 WSW 9 15 29.80 1009 10 16 0.00 0.00
11:53 pm 23:53 Clear 93 33.9 42 5.6 17 17 SW 10 17 29.81 1009 10 16 0.00 0.00

Powered by AerisWeather